Fosston, MN

8:56 PM CDT on August 31, 2016 (GMT -0500)
Fosston Municipal

Weather History for KFSE - October, 2012

Change the Weather History Date:

Thursday, October 18, 2012

  Actual Average Record
Temperature  
Mean Temperature 44 °F -  
Max Temperature 48 °F 51 °F 75 °F (1950)
Min Temperature 41 °F 30 °F 10 °F (1992)
Degree Days  
Heating Degree Days 20    
Moisture  
Dew Point 42 °F    
Average Humidity 95    
Maximum Humidity 100    
Minimum Humidity 93    
Precipitation  
Precipitation 0.36 in - - ()
Sea Level Pressure  
Sea Level Pressure 29.29 in    
Wind  
Wind Speed 13 mph (North)    
Max Wind Speed 29 mph    
Max Gust Speed 38 mph    
Visibility 6 miles    
Events Rain    
Averages and records for this station are not official NWS values.
T = Trace of Precipitation, MM = Missing Value Source: NWS Daily Summary

Daily Weather History Graph

Daily Weather History Graph

Search for Another Location

Airport or City:

Trip Planner

Search our weather history database for the weather conditions in past years. The results will help you decide how hot, cold, wet, or windy it might be!

Date:

Astronomy

Oct. 18, 2012 Rise Set
Actual Time 7:47 AM CDT 6:28 PM CDT
Civil Twilight 7:15 AM CDT 6:59 PM CDT
Nautical Twilight 6:39 AM CDT 7:35 PM CDT
Astronomical Twilight 6:04 AM CDT 8:10 PM CDT
Moon 11:45 AM CDT (10/18) 8:48 PM CDT (10/18)
Length of Visible Light 11h 43m
Length of Day
10h 41m
Waxing Crescent, 14% of the Moon is Illuminated
Oct 18
Waxing Crescent
Oct 21
First Quarter
Oct 29
Full
Nov 6
Last Quarter
Nov 13
New

Hourly Weather History & Observations

Time (CDT) Temp. Windchill Dew Point Humidity Pressure Visibility Wind Dir Wind Speed Gust Speed Precip Events Conditions
12:15 AM 42.8 °F 37.5 °F 41.0 °F 93% 29.12 in 1.8 mi South 9.2 mph - N/A   Overcast
12:35 AM 42.8 °F 37.0 °F 41.0 °F 93% 29.12 in 2.0 mi South 10.4 mph - N/A   Overcast
12:55 AM 42.8 °F 37.5 °F 41.0 °F 93% 29.13 in 2.0 mi South 9.2 mph - N/A   Overcast
1:15 AM 42.8 °F 37.0 °F 41.0 °F 93% 29.12 in 2.5 mi South 10.4 mph - N/A   Overcast
1:35 AM 42.8 °F 37.0 °F 41.0 °F 93% 29.12 in 2.0 mi South 10.4 mph - N/A   Overcast
1:55 AM 42.8 °F 37.5 °F 41.0 °F 93% 29.12 in 2.5 mi South 9.2 mph - N/A   Overcast
2:15 AM 42.8 °F 38.0 °F 41.0 °F 93% 29.12 in 2.5 mi SSE 8.1 mph - N/A   Overcast
2:35 AM 42.8 °F 37.5 °F 41.0 °F 93% 29.13 in 2.0 mi SSE 9.2 mph - N/A   Overcast
2:55 AM 42.8 °F 38.6 °F 41.0 °F 93% 29.13 in 2.5 mi SSE 6.9 mph - N/A   Overcast
3:15 AM 42.8 °F 41.1 °F 41.0 °F 93% 29.13 in 4.0 mi SE 3.5 mph - N/A   Overcast
3:35 AM 42.8 °F 40.1 °F 41.0 °F 93% 29.14 in 5.0 mi SE 4.6 mph - N/A   Overcast
3:55 AM 42.8 °F 38.6 °F 41.0 °F 93% 29.14 in 5.0 mi SE 6.9 mph - N/A   Overcast
4:15 AM 42.8 °F 40.1 °F 41.0 °F 93% 29.15 in 10.0 mi ESE 4.6 mph - N/A   Overcast
4:35 AM 42.8 °F 41.1 °F 41.0 °F 93% 29.14 in 10.0 mi ESE 3.5 mph - N/A   Overcast
4:55 AM 42.8 °F - 41.0 °F 93% 29.15 in 10.0 mi Calm Calm - N/A   Overcast
5:16 AM 42.8 °F 40.1 °F 41.0 °F 93% 29.16 in 10.0 mi East 4.6 mph - N/A   Overcast
5:35 AM 42.8 °F 38.0 °F 41.0 °F 93% 29.17 in 10.0 mi East 8.1 mph - N/A   Overcast
5:55 AM 42.8 °F - 41.0 °F 93% 29.16 in 10.0 mi Calm Calm - N/A   Overcast
6:35 AM 42.8 °F 41.1 °F 41.0 °F 93% 29.18 in 7.0 mi ENE 3.5 mph - N/A   Overcast
6:55 AM 41.0 °F 38.0 °F 41.0 °F 100% 29.18 in 10.0 mi ENE 4.6 mph - N/A   Overcast
7:15 AM 41.0 °F 35.8 °F 41.0 °F 100% 29.20 in 10.0 mi ENE 8.1 mph - N/A   Overcast
7:35 AM 41.0 °F 38.0 °F 41.0 °F 100% 29.21 in 10.0 mi ENE 4.6 mph - N/A   Overcast
7:55 AM 42.8 °F 38.6 °F 41.0 °F 93% 29.22 in 10.0 mi NE 6.9 mph - N/A   Overcast
8:15 AM 42.8 °F 38.0 °F 41.0 °F 93% 29.22 in 10.0 mi NE 8.1 mph - N/A   Overcast
8:35 AM 42.8 °F 37.5 °F 41.0 °F 93% 29.23 in 10.0 mi NNE 9.2 mph - N/A   Overcast
8:55 AM 42.8 °F 38.0 °F 41.0 °F 93% 29.23 in 10.0 mi NNE 8.1 mph - N/A   Overcast
9:15 AM 42.8 °F 37.0 °F 41.0 °F 93% 29.25 in 10.0 mi North 10.4 mph - N/A   Overcast
9:35 AM 42.8 °F 37.0 °F 41.0 °F 93% 29.26 in 10.0 mi North 10.4 mph - N/A   Drizzle
9:56 AM 42.8 °F 37.0 °F 42.8 °F 100% 29.27 in 7.0 mi North 10.4 mph - N/A Rain Light Rain
10:15 AM 42.8 °F 37.5 °F 42.8 °F 100% 29.27 in 10.0 mi NNW 9.2 mph - 0.03 in Rain Rain
10:35 AM 42.8 °F 37.0 °F 42.8 °F 100% 29.27 in 10.0 mi NNW 10.4 mph - 0.07 in Rain Light Rain
10:56 AM 44.6 °F 39.2 °F 42.8 °F 93% 29.28 in 10.0 mi NW 10.4 mph - 0.01 in Rain Rain
11:15 AM 44.6 °F 38.8 °F 42.8 °F 93% 29.28 in 10.0 mi NW 11.5 mph - 0.03 in Rain Light Rain
11:35 AM 44.6 °F 37.8 °F 44.6 °F 100% 29.28 in 10.0 mi NW 15.0 mph 19.6 mph 0.05 in Rain Light Rain
11:56 AM 44.6 °F 37.8 °F 44.6 °F 100% 29.28 in 10.0 mi NW 15.0 mph 20.7 mph N/A Rain Light Rain
12:15 PM 44.6 °F 37.4 °F 44.6 °F 100% 29.27 in 7.0 mi NW 16.1 mph 24.2 mph 0.04 in Rain Rain
12:35 PM 46.4 °F 39.5 °F 44.6 °F 93% 29.27 in 10.0 mi NW 17.3 mph 21.9 mph 0.06 in Rain Light Rain
12:56 PM 46.4 °F 39.8 °F 44.6 °F 93% 29.26 in 7.0 mi NW 16.1 mph 26.5 mph N/A Rain Rain
1:15 PM 46.4 °F 39.2 °F 46.4 °F 100% 29.26 in 7.0 mi NW 18.4 mph 26.5 mph 0.02 in   Drizzle
1:35 PM 48.2 °F - 46.4 °F 93% 29.26 in 10.0 mi NNW 21.9 mph 28.8 mph 0.02 in   Drizzle
1:55 PM 48.2 °F - 46.4 °F 93% 29.26 in 10.0 mi NNW 23.0 mph 29.9 mph 0.03 in   Drizzle
2:15 PM 48.2 °F - 46.4 °F 93% 29.26 in 10.0 mi NNW 26.5 mph 33.4 mph N/A   Light Drizzle
2:35 PM 48.2 °F - 46.4 °F 93% 29.27 in 7.0 mi NNW 23.0 mph 31.1 mph N/A   Light Drizzle
2:55 PM 48.2 °F - 46.4 °F 93% 29.28 in 4.0 mi NNW 23.0 mph 38.0 mph 0.01 in   Drizzle
3:15 PM 46.4 °F 38.3 °F 46.4 °F 100% 29.29 in 4.0 mi NNW 23.0 mph 35.7 mph N/A   Drizzle
3:35 PM 46.4 °F 38.3 °F 46.4 °F 100% 29.30 in 5.0 mi NNW 23.0 mph 36.8 mph 0.02 in Rain Rain
3:55 PM 46.4 °F 37.7 °F 44.6 °F 93% 29.31 in 4.0 mi NNW 26.5 mph 34.5 mph 0.05 in Rain Light Rain
4:16 PM 46.4 °F 37.7 °F 44.6 °F 93% 29.32 in 3.0 mi NNW 26.5 mph 32.2 mph 0.01 in   Drizzle
4:35 PM 44.6 °F 35.9 °F 44.6 °F 100% 29.33 in 4.0 mi NNW 23.0 mph 34.5 mph 0.02 in   Drizzle
4:55 PM 44.6 °F 35.3 °F 42.8 °F 93% 29.35 in 2.5 mi NNW 26.5 mph 34.5 mph 0.04 in   Drizzle
5:16 PM 44.6 °F 35.5 °F 42.8 °F 93% 29.36 in 5.0 mi NNW 25.3 mph 34.5 mph 0.01 in Rain Rain
5:35 PM 44.6 °F 35.3 °F 42.8 °F 93% 29.37 in 5.0 mi NNW 26.5 mph 33.4 mph 0.02 in   Drizzle
5:55 PM 44.6 °F 35.3 °F 42.8 °F 93% 29.38 in 5.0 mi NNW 26.5 mph 34.5 mph 0.03 in   Drizzle
6:16 PM 44.6 °F 34.9 °F 42.8 °F 93% 29.39 in 2.5 mi NNW 28.8 mph 35.7 mph N/A   Drizzle
6:35 PM 42.8 °F 32.7 °F 42.8 °F 100% 29.40 in 2.5 mi NNW 27.6 mph 34.5 mph N/A   Drizzle
6:55 PM 42.8 °F 32.7 °F 42.8 °F 100% 29.41 in 2.5 mi NNW 27.6 mph 36.8 mph N/A   Drizzle
7:16 PM 42.8 °F 32.5 °F 42.8 °F 100% 29.42 in 2.5 mi NNW 28.8 mph 35.7 mph 0.01 in   Drizzle
7:35 PM 42.8 °F 32.5 °F 42.8 °F 100% 29.43 in 3.0 mi North 28.8 mph 34.5 mph 0.01 in   Light Drizzle
7:55 PM 42.8 °F 32.7 °F 41.0 °F 93% 29.44 in 2.5 mi NNW 27.6 mph 33.4 mph 0.02 in   Drizzle
8:16 PM 42.8 °F 32.7 °F 41.0 °F 93% 29.45 in 2.0 mi NNW 27.6 mph 36.8 mph N/A   Drizzle
8:35 PM 42.8 °F 32.5 °F 41.0 °F 93% 29.46 in 3.0 mi NNW 28.8 mph 35.7 mph N/A   Light Drizzle
8:55 PM 42.8 °F 33.1 °F 41.0 °F 93% 29.46 in 5.0 mi NNW 25.3 mph 33.4 mph N/A   Overcast
9:16 PM 42.8 °F 32.9 °F 41.0 °F 93% 29.48 in 2.5 mi NNW 26.5 mph 32.2 mph N/A   Overcast
9:35 PM 42.8 °F 33.8 °F 41.0 °F 93% 29.48 in 3.0 mi NNW 21.9 mph 35.7 mph N/A   Overcast
9:55 PM 41.0 °F 30.5 °F 41.0 °F 100% 29.50 in 2.5 mi NNW 26.5 mph 35.7 mph N/A   Overcast
10:16 PM 41.0 °F 30.7 °F 39.2 °F 93% 29.51 in 2.5 mi North 25.3 mph 33.4 mph N/A   Overcast
10:35 PM 41.0 °F 31.1 °F 39.2 °F 93% 29.51 in 2.0 mi NNW 23.0 mph 34.5 mph N/A   Overcast
10:55 PM 41.0 °F 30.2 °F 39.2 °F 93% 29.52 in 2.0 mi NNW 27.6 mph 33.4 mph N/A   Drizzle
11:16 PM 41.0 °F 30.9 °F 39.2 °F 93% 29.53 in 2.5 mi NNW 24.2 mph 33.4 mph N/A   Light Drizzle
11:35 PM 41.0 °F 30.0 °F 39.2 °F 93% 29.53 in 3.0 mi NNW 28.8 mph 34.5 mph N/A   Light Drizzle
11:55 PM 41.0 °F 30.2 °F 39.2 °F 93% 29.54 in 3.0 mi NNW 27.6 mph 33.4 mph N/A   Overcast